Temp
-11 -10 -10 -12 -15 -15 -17 -20 -22 -21 -21 -21 -22 -21 -21 -21 -21 -21 -20 -19 -19 -19 -19 -18 -18 -18 -17 -17 -17 -17 -17 -17 -17 -16 -16 -15 -15 -15 -15 -15 -15 -14 -14 -14 -14 -14 -14
-11 -10 -11 -14 -15 -15 -17 -21 -24 -23 -22 -22 -22 -22 -21 -22 -21 -22 -21 -21 -20 -20 -20 -19 -19 -18 -18 -18 -17 -17 -17 -17 -17 -17 -16 -16 -16 -16 -16 -16 -15 -15 -15 -15 -15 -15 -14
-11 -11 -12 -15 -16 -15 -18 -23 -25 -24 -23 -22 -23 -23 -22 -22 -22 -22 -22 -22 -22 -23 -22 -21 -20 -19 -18 -18 -18 -18 -18 -17 -17 -17 -16 -17 -17 -16 -16 -16 -15 -15 -15 -15 -15 -15 -14
-11 -11 -14 -16 -16 -16 -21 -26 -25 -24 -22 -23 -24 -24 -23 -23 -23 -23 -22 -22 -23 -23 -23 -22 -22 -21 -20 -18 -18 -19 -18 -18 -17 -17 -17 -17 -17 -17 -16 -16 -16 -16 -15 -15 -15 -15 -15
-11 -11 -15 -17 -16 -16 -22 -27 -26 -25 -25 -25 -25 -25 -24 -23 -23 -23 -23 -23 -23 -24 -23 -22 -21 -21 -20 -20 -19 -19 -19 -18 -18 -18 -17 -18 -17 -17 -17 -16 -16 -16 -15 -15 -16 -17 -16
-12 -12 -16 -17 -17 -17 -21 -27 -27 -27 -26 -26 -26 -25 -25 -24 -23 -24 -24 -24 -23 -23 -23 -23 -22 -22 -21 -20 -20 -19 -19 -19 -18 -18 -18 -18 -18 -17 -17 -16 -16 -16 -16 -17 -17 -17 -16
-13 -14 -16 -18 -18 -18 -18 -25 -28 -28 -28 -28 -26 -26 -26 -25 -24 -24 -24 -25 -24 -23 -23 -23 -23 -22 -21 -20 -20 -20 -19 -19 -19 -19 -18 -18 -18 -17 -17 -17 -17 -17 -17 -17 -18 -17 -16
-14 -15 -17 -19 -19 -19 -19 -22 -24 -25 -26 -27 -27 -27 -26 -28 -28 -26 -25 -24 -24 -24 -23 -23 -23 -23 -22 -21 -20 -20 -20 -19 -19 -19 -18 -18 -18 -18 -18 -18 -18 -18 -19 -20 -20 -19 -18
-15 -16 -18 -18 -19 -20 -20 -22 -22 -23 -23 -24 -24 -25 -26 -26 -28 -29 -26 -25 -24 -24 -24 -23 -23 -23 -22 -21 -20 -20 -20 -20 -19 -19 -19 -19 -19 -19 -19 -19 -19 -20 -20 -20 -19 -19 -18
-15 -16 -17 -18 -19 -20 -20 -21 -21 -22 -22 -23 -22 -23 -23 -24 -25 -25 -25 -25 -25 -24 -24 -23 -23 -22 -22 -22 -21 -20 -20 -19 -20 -20 -19 -19 -20 -20 -20 -20 -20 -20 -19 -19 -19 -18 -18
-15 -17 -17 -18 -19 -19 -20 -20 -21 -21 -21 -22 -22 -21 -22 -23 -23 -23 -24 -23 -24 -24 -24 -23 -22 -22 -21 -21 -21 -21 -20 -20 -20 -20 -20 -20 -20 -19 -20 -20 -20 -19 -19 -19 -19 -18 -17
-15 -16 -17 -18 -19 -19 -19 -20 -20 -20 -20 -21 -21 -21 -21 -21 -21 -22 -23 -23 -23 -23 -23 -23 -22 -22 -22 -21 -21 -21 -20 -20 -20 -20 -20 -20 -20 -19 -19 -19 -19 -19 -19 -19 -19 -18 -18
-15 -15 -17 -18 -19 -19 -20 -19 -20 -20 -20 -20 -20 -21 -20 -21 -20 -21 -21 -22 -22 -22 -22 -22 -22 -21 -21 -21 -21 -21 -21 -20 -20 -20 -20 -20 -19 -19 -19 -19 -19 -19 -19 -18 -18 -18 -18
-14 -15 -16 -17 -18 -19 -19 -20 -20 -20 -20 -20 -20 -20 -20 -20 -20 -20 -21 -21 -21 -21 -21 -22 -22 -21 -21 -21 -21 -21 -20 -20 -20 -20 -20 -19 -19 -19 -19 -19 -19 -19 -19 -18 -18 -18 -17
-14 -14 -15 -16 -17 -18 -19 -20 -20 -20 -20 -20 -20 -20 -20 -20 -20 -20 -20 -20 -20 -21 -21 -21 -21 -21 -21 -21 -21 -20 -20 -20 -20 -20 -19 -19 -19 -19 -19 -18 -19 -18 -18 -18 -18 -17 -17
-14 -14 -15 -15 -16 -17 -18 -19 -20 -21 -20 -20 -20 -20 -20 -20 -20 -21 -20 -20 -20 -20 -20 -20 -21 -21 -21 -20 -20 -20 -19 -20 -20 -19 -19 -19 -18 -19 -18 -18 -18 -18 -17 -17 -17 -17 -16
-13 -14 -14 -15 -15 -16 -16 -17 -18 -20 -21 -21 -20 -20 -20 -20 -20 -21 -20 -19 -20 -20 -20 -20 -20 -20 -20 -20 -19 -19 -19 -19 -19 -19 -19 -19 -18 -18 -18 -18 -17 -17 -17 -17 -17 -16 -16
-12 -13 -14 -14 -14 -15 -15 -15 -15 -16 -18 -19 -20 -20 -20 -20 -20 -20 -19 -19 -19 -20 -20 -20 -20 -20 -19 -19 -19 -19 -19 -19 -19 -19 -19 -18 -18 -18 -18 -17 -17 -17 -16 -17 -16 -16 -16
-12 -12 -13 -14 -14 -14 -14 -14 -14 -14 -15 -17 -18 -19 -20 -20 -20 -19 -19 -19 -19 -19 -20 -19 -19 -19 -19 -19 -19 -19 -19 -19 -19 -19 -18 -18 -18 -18 -18 -17 -16 -17 -16 -16 -16 -16 -16
-12 -12 -12 -14 -14 -13 -14 -14 -14 -14 -14 -14 -16 -17 -18 -19 -19 -19 -19 -18 -18 -19 -19 -19 -19 -19 -19 -19 -19 -18 -19 -18 -19 -18 -18 -18 -18 -18 -18 -17 -16 -16 -16 -16 -16 -16 -16
-12 -12 -12 -13 -13 -14 -13 -14 -14 -14 -13 -13 -13 -15 -16 -17 -18 -18 -18 -18 -18 -18 -18 -19 -19 -19 -19 -19 -18 -18 -18 -18 -18 -18 -17 -17 -17 -18 -17 -17 -16 -15 -16 -16 -16 -15 -15
-12 -12 -12 -12 -12 -13 -14 -13 -13 -14 -13 -13 -13 -13 -15 -16 -18 -18 -18 -18 -18 -18 -18 -18 -18 -18 -18 -18 -18 -18 -18 -18 -17 -17 -17 -17 -17 -17 -17 -16 -16 -16 -16 -15 -15 -15 -15
-13 -12 -12 -12 -12 -12 -12 -13 -13 -14 -13 -13 -14 -13 -13 -14 -16 -18 -18 -18 -18 -18 -18 -18 -18 -18 -18 -18 -18 -17 -17 -17 -17 -17 -17 -17 -17 -17 -16 -16 -16 -16 -15 -15 -15 -15 -15
-13 -12 -12 -12 -12 -12 -11 -12 -13 -13 -13 -13 -14 -14 -14 -14 -15 -16 -17 -17 -18 -18 -18 -18 -18 -18 -18 -17 -17 -17 -17 -17 -17 -17 -17 -16 -17 -17 -16 -16 -16 -15 -15 -15 -15 -15 -15
-12 -12 -12 -12 -12 -12 -12 -11 -12 -13 -13 -13 -14 -14 -13 -13 -14 -15 -15 -16 -17 -18 -18 -18 -18 -18 -18 -17 -17 -17 -17 -16 -16 -16 -16 -16 -16 -15 -16 -16 -16 -16 -15 -15 -15 -15 -15
-11 -13 -12 -11 -12 -12 -12 -12 -11 -12 -13 -13 -13 -14 -14 -13 -13 -13 -14 -15 -15 -16 -16 -17 -17 -17 -17 -17 -16 -16 -16 -16 -17 -16 -16 -16 -16 -16 -15 -15 -16 -16 -16 -16 -15 -16 -16
-11 -12 -12 -11 -12 -12 -12 -12 -12 -11 -12 -13 -13 -13 -13 -13 -13 -13 -13 -14 -14 -14 -14 -15 -15 -15 -16 -16 -16 -16 -16 -15 -16 -15 -15 -15 -15 -16 -16 -15 -15 -16 -16 -16 -16 -16 -15
-11 -11 -12 -11 -11 -12 -12 -12 -12 -11 -11 -12 -12 -13 -13 -13 -13 -13 -13 -13 -13 -13 -14 -14 -14 -14 -14 -14 -14 -14 -15 -15 -15 -15 -15 -15 -15 -16 -16 -16 -15 -16 -15 -16 -15 -15 -15
-11 -11 -11 -11 -11 -11 -12 -12 -12 -12 -11 -11 -11 -12 -13 -13 -13 -13 -13 -13 -13 -13 -13 -13 -13 -13 -13 -14 -14 -14 -14 -14 -14 -14 -13 -14 -13 -14 -14 -14 -14 -15 -14 -14 -14 -15 -15
Height
5722 5705 5688 5666 5642 5620 5598 5583 5575 5571 5572 5570 5567 5569 5574 5577 5579 5581 5585 5590 5594 5597 5601 5606 5613 5623 5633 5641 5644 5650 5654 5660 5665 5670 5674 5678 5681 5684 5686 5688 5689 5692 5693 5694 5693 5694 5694
5714 5697 5677 5654 5631 5604 5576 5555 5542 5541 5553 5556 5552 5553 5559 5565 5569 5573 5576 5579 5582 5586 5590 5596 5606 5614 5624 5632 5638 5642 5646 5651 5656 5662 5667 5670 5673 5676 5677 5678 5681 5684 5684 5683 5683 5681 5684
5708 5693 5669 5645 5618 5588 5557 5540 5524 5522 5535 5539 5542 5537 5545 5552 5558 5564 5567 5571 5576 5581 5586 5593 5599 5608 5614 5625 5629 5632 5637 5644 5650 5655 5659 5661 5664 5668 5670 5670 5673 5674 5675 5673 5671 5671 5672
5705 5686 5662 5637 5611 5578 5544 5531 5520 5523 5527 5529 5530 5530 5537 5542 5547 5554 5560 5565 5572 5576 5583 5590 5598 5603 5608 5614 5622 5626 5630 5636 5641 5647 5652 5654 5657 5660 5662 5663 5664 5664 5664 5663 5659 5659 5659
5701 5683 5659 5636 5610 5575 5542 5533 5522 5519 5520 5520 5521 5522 5529 5531 5536 5543 5551 5558 5564 5570 5576 5585 5593 5599 5604 5609 5615 5620 5625 5631 5636 5641 5646 5649 5651 5654 5656 5656 5656 5655 5654 5653 5651 5646 5648
5699 5681 5659 5635 5612 5578 5545 5533 5528 5523 5520 5518 5516 5515 5518 5525 5527 5534 5541 5549 5555 5565 5572 5578 5586 5595 5602 5607 5611 5615 5621 5627 5632 5637 5641 5644 5646 5647 5648 5648 5647 5645 5644 5642 5641 5637 5637
5699 5682 5662 5638 5615 5587 5558 5539 5532 5525 5520 5514 5513 5510 5512 5516 5519 5524 5535 5543 5552 5561 5566 5576 5584 5591 5596 5601 5608 5613 5619 5624 5629 5633 5636 5639 5640 5640 5642 5640 5638 5637 5636 5635 5631 5627 5628
5701 5683 5666 5645 5622 5598 5575 5556 5540 5530 5523 5517 5512 5508 5506 5504 5504 5509 5521 5535 5546 5556 5565 5574 5581 5587 5592 5598 5604 5612 5618 5623 5626 5630 5632 5634 5634 5635 5634 5633 5631 5630 5630 5628 5628 5625 5624
5703 5687 5671 5654 5634 5612 5593 5577 5562 5548 5537 5532 5524 5518 5513 5507 5500 5498 5510 5530 5544 5557 5565 5572 5577 5583 5592 5598 5603 5609 5616 5620 5624 5626 5628 5628 5629 5628 5628 5628 5628 5627 5626 5626 5626 5623 5621
5707 5693 5676 5662 5644 5628 5610 5595 5578 5566 5555 5548 5544 5539 5532 5528 5522 5517 5522 5532 5545 5557 5566 5575 5580 5586 5592 5597 5603 5608 5613 5619 5622 5623 5623 5624 5625 5626 5626 5626 5626 5625 5626 5625 5624 5621 5619
5712 5698 5683 5669 5655 5641 5626 5611 5596 5585 5575 5566 5562 5556 5552 5547 5544 5542 5544 5547 5554 5563 5571 5579 5582 5587 5592 5599 5604 5609 5614 5617 5618 5619 5623 5625 5624 5624 5624 5624 5625 5626 5625 5624 5621 5619 5617
5717 5704 5690 5676 5663 5651 5640 5625 5613 5601 5591 5584 5575 5572 5569 5567 5562 5559 5559 5559 5568 5575 5576 5582 5587 5592 5597 5601 5605 5609 5612 5616 5619 5621 5622 5622 5622 5623 5623 5624 5625 5625 5623 5622 5620 5617 5615
5719 5709 5696 5684 5671 5659 5649 5638 5626 5615 5605 5598 5591 5586 5582 5580 5578 5574 5571 5574 5579 5580 5585 5589 5593 5598 5601 5604 5606 5610 5614 5618 5620 5621 5622 5622 5622 5624 5625 5625 5625 5624 5623 5621 5620 5616 5613
5723 5712 5702 5691 5679 5667 5657 5648 5638 5627 5618 5611 5606 5600 5596 5591 5589 5588 5587 5588 5589 5589 5593 5596 5599 5603 5607 5609 5612 5615 5617 5619 5620 5622 5623 5623 5626 5625 5625 5625 5625 5624 5623 5619 5617 5615 5612
5728 5716 5707 5698 5687 5675 5663 5655 5646 5637 5629 5622 5615 5611 5606 5603 5600 5599 5600 5600 5598 5599 5601 5604 5607 5610 5612 5613 5616 5618 5620 5623 5624 5625 5626 5626 5627 5627 5627 5627 5626 5623 5622 5620 5617 5616 5614
5734 5723 5710 5703 5693 5681 5671 5661 5653 5644 5637 5630 5623 5617 5615 5609 5604 5605 5610 5606 5605 5608 5610 5612 5614 5615 5617 5619 5621 5623 5625 5626 5626 5627 5628 5629 5630 5629 5628 5627 5625 5623 5623 5621 5618 5618 5617
5738 5728 5715 5706 5699 5689 5679 5667 5660 5652 5642 5635 5630 5624 5621 5616 5614 5614 5616 5614 5615 5617 5619 5620 5621 5622 5623 5624 5625 5626 5628 5629 5630 5630 5631 5632 5632 5632 5630 5628 5626 5625 5623 5622 5622 5621 5619
5741 5732 5723 5712 5705 5698 5689 5678 5667 5658 5650 5638 5633 5629 5626 5624 5624 5625 5624 5624 5625 5625 5627 5628 5629 5629 5629 5630 5629 5630 5632 5633 5633 5634 5634 5635 5634 5633 5633 5630 5628 5627 5626 5626 5626 5626 5624
5746 5736 5728 5721 5710 5703 5696 5687 5678 5666 5657 5647 5637 5632 5630 5630 5630 5632 5633 5632 5631 5632 5634 5636 5635 5635 5635 5635 5635 5635 5636 5637 5637 5637 5638 5637 5637 5636 5633 5634 5631 5631 5631 5632 5631 5631 5631
5751 5741 5732 5725 5716 5708 5702 5693 5684 5677 5668 5659 5647 5639 5634 5632 5633 5637 5639 5639 5639 5639 5639 5640 5640 5640 5641 5641 5641 5641 5642 5642 5642 5641 5641 5640 5639 5639 5639 5637 5637 5635 5636 5636 5635 5635 5637
5753 5747 5738 5729 5721 5712 5705 5699 5691 5684 5677 5672 5662 5649 5641 5639 5639 5641 5643 5645 5646 5646 5645 5646 5645 5645 5647 5647 5646 5646 5648 5648 5647 5646 5646 5645 5645 5645 5644 5643 5642 5641 5640 5640 5640 5642 5643
5754 5749 5742 5733 5725 5717 5710 5704 5696 5688 5682 5678 5674 5664 5652 5646 5645 5646 5648 5649 5650 5651 5651 5651 5651 5650 5651 5652 5652 5652 5652 5653 5652 5651 5651 5650 5649 5649 5649 5649 5648 5648 5647 5645 5646 5646 5646
5753 5749 5743 5737 5729 5723 5716 5709 5704 5696 5687 5682 5680 5674 5668 5657 5653 5653 5653 5654 5654 5655 5656 5656 5656 5656 5656 5657 5657 5656 5656 5657 5657 5656 5655 5655 5654 5654 5653 5652 5652 5653 5652 5651 5650 5650 5650
5751 5747 5743 5738 5733 5726 5719 5713 5707 5701 5695 5685 5681 5680 5676 5671 5663 5661 5660 5658 5658 5658 5659 5660 5660 5660 5660 5660 5661 5661 5660 5660 5659 5658 5658 5657 5657 5657 5656 5657 5656 5656 5654 5654 5653 5653 5653
5747 5744 5741 5739 5733 5727 5722 5715 5709 5704 5700 5695 5686 5681 5681 5679 5675 5668 5664 5665 5663 5662 5662 5663 5665 5665 5664 5663 5663 5663 5662 5662 5662 5660 5659 5658 5658 5658 5657 5657 5659 5656 5656 5656 5654 5654 5652
5743 5739 5737 5736 5734 5729 5724 5719 5713 5705 5701 5697 5693 5689 5682 5683 5681 5677 5672 5667 5667 5667 5666 5665 5665 5666 5666 5666 5665 5664 5664 5663 5663 5661 5659 5659 5658 5658 5657 5655 5655 5655 5656 5654 5653 5653 5651
5738 5735 5732 5732 5733 5728 5725 5723 5716 5710 5701 5698 5695 5691 5687 5682 5683 5682 5678 5676 5672 5670 5669 5670 5669 5667 5666 5665 5665 5664 5663 5663 5662 5661 5660 5659 5658 5657 5656 5654 5654 5652 5651 5652 5652 5654 5648
5733 5730 5727 5725 5727 5725 5721 5720 5717 5713 5706 5700 5697 5693 5689 5685 5683 5681 5681 5680 5676 5674 5672 5671 5671 5671 5670 5668 5666 5664 5663 5662 5660 5659 5658 5656 5654 5653 5653 5652 5651 5649 5649 5649 5650 5649 5648
5727 5722 5721 5718 5718 5718 5715 5714 5714 5711 5708 5703 5699 5693 5690 5686 5683 5681 5678 5677 5676 5675 5675 5673 5671 5669 5670 5669 5668 5666 5664 5663 5662 5659 5658 5657 5655 5653 5651 5650 5649 5647 5647 5646 5646 5646 5645
Wind_Speed
66 71 74 74 74 75 68 60 61 44 45 45 46 46 41 32 29 24 26 31 29 34 36 36 36 33 33 34 36 40 43 43 42 43 44 41 41 41 41 40 40 40 42 43 45 46 49
69 74 73 74 75 77 74 66 52 45 38 33 40 42 39 37 29 23 19 21 20 19 17 23 27 29 29 36 35 38 40 38 42 43 43 43 43 40 40 39 39 40 42 42 44 47 49
72 73 76 76 78 79 73 47 37 19 33 32 33 34 40 28 29 23 18 13 13 11 11 13 14 24 32 32 34 28 31 32 34 33 37 38 40 40 37 38 39 40 40 42 46 48 52
73 77 77 78 79 80 63 41 16 5 20 21 25 31 30 24 23 21 20 18 18 13 12 13 15 25 25 38 23 24 27 31 31 31 31 31 32 35 35 36 38 39 41 43 49 53 55
73 79 76 76 81 83 59 40 26 16 19 19 21 30 26 27 27 21 21 22 23 19 17 16 23 22 28 29 27 25 25 25 26 29 27 28 28 29 30 34 36 38 42 45 47 51 50
73 77 74 76 83 88 67 41 36 20 19 16 20 27 29 27 31 24 22 21 23 21 20 17 24 23 23 27 28 27 27 25 26 26 23 24 24 26 29 33 36 40 43 45 46 48 48
72 75 73 73 81 88 75 49 34 31 28 21 20 24 26 30 33 37 32 22 25 25 18 20 19 22 23 29 28 25 22 23 25 22 21 22 23 26 29 33 37 39 40 39 36 39 40
69 71 70 70 76 83 80 65 63 46 38 32 27 16 14 12 18 36 41 28 30 22 22 27 22 21 25 27 27 25 20 19 18 19 21 21 23 25 29 30 29 29 26 20 19 18 15
64 65 65 66 69 73 73 67 65 62 58 54 51 44 38 33 18 5 23 30 35 31 23 18 20 23 27 16 21 24 21 18 19 18 17 18 19 20 20 17 19 16 13 14 10 16 15
61 62 62 61 61 65 64 59 61 60 56 56 52 45 42 41 40 38 32 26 28 27 27 23 19 12 21 17 19 21 20 18 13 10 13 12 11 13 11 13 8 10 11 12 14 16 17
60 58 59 58 58 57 56 57 56 56 59 56 57 56 50 42 40 35 31 42 30 25 27 18 12 15 17 23 17 18 15 8 8 8 7 7 10 11 10 7 8 11 10 7 11 14 12
57 60 57 57 55 53 53 49 48 50 52 53 51 48 46 42 36 35 29 28 29 25 21 19 16 14 15 16 15 13 12 9 9 4 3 4 6 4 3 4 9 10 7 11 14 13 11
56 57 56 55 55 52 47 47 47 47 48 50 48 48 48 41 34 30 30 30 29 28 27 21 21 18 15 11 11 13 14 10 6 3 2 2 4 5 3 7 9 9 10 8 3 6 13
62 52 55 53 52 52 49 42 39 40 39 40 41 40 40 38 34 29 22 19 21 24 25 24 20 21 21 19 17 15 12 11 7 3 1 5 3 2 4 5 4 8 11 9 7 12 8
59 56 52 54 51 50 48 44 37 33 31 31 34 35 35 32 25 23 20 20 24 23 23 26 26 21 18 17 16 16 17 12 9 10 7 3 2 3 3 3 3 7 8 6 12 4 9
59 59 50 50 52 48 45 44 40 31 29 26 27 30 28 33 30 20 10 19 23 24 28 24 22 20 19 19 18 12 9 9 13 12 7 4 3 1 1 1 4 4 4 3 4 6 7
57 54 54 46 48 48 48 45 43 37 27 24 23 25 25 32 31 28 25 31 29 27 23 22 21 24 23 19 15 11 14 12 10 11 10 9 6 5 5 4 4 5 6 7 6 7 4
53 54 50 52 45 47 47 46 45 43 36 30 27 21 20 25 25 24 27 24 24 24 22 20 21 22 21 17 15 16 16 14 13 14 11 10 8 8 12 13 13 8 7 6 10 14 20
48 51 52 50 50 42 44 44 45 43 40 36 33 28 20 19 20 21 22 21 21 24 25 20 18 17 19 18 16 20 18 18 17 14 12 13 15 17 19 21 18 10 11 10 9 13 24
50 45 48 49 50 43 39 41 40 41 42 40 35 30 28 23 19 22 21 19 18 20 20 17 18 16 18 18 17 18 20 19 18 14 16 17 18 18 19 21 21 16 11 12 9 13 24
48 45 42 45 44 46 38 36 37 38 38 40 41 36 35 26 23 27 24 23 17 15 17 19 21 21 20 19 18 16 17 14 14 13 14 16 16 16 16 18 19 17 13 17 22 20 12
44 45 38 38 41 42 43 33 32 34 35 34 36 38 35 32 29 28 24 19 15 16 19 20 20 19 20 19 17 14 13 12 11 11 11 13 13 12 12 12 13 15 13 16 14 15 13
39 38 40 31 35 40 43 41 31 29 29 31 31 35 36 37 30 26 24 19 16 16 16 17 17 17 16 15 14 12 11 10 7 6 6 8 8 8 7 8 9 8 10 9 12 12 9
36 36 36 33 27 32 37 39 38 27 23 23 25 27 28 27 28 26 22 21 19 16 15 13 14 14 11 10 8 6 6 1 2 2 3 3 3 4 3 5 3 4 3 5 5 4 2
35 34 32 35 26 24 28 33 35 34 22 20 19 20 22 24 25 23 22 20 17 16 15 12 11 10 8 7 5 4 6 7 7 7 8 9 9 8 7 6 4 5 6 6 6 8 9
40 34 30 30 31 20 22 26 31 34 30 17 16 15 16 17 18 21 18 17 15 14 13 10 7 7 7 7 6 8 9 12 13 14 16 17 17 16 17 17 15 14 13 14 14 15 17
39 36 31 28 29 23 19 22 23 27 31 28 14 11 10 11 12 14 15 15 15 14 13 10 9 8 6 5 4 4 7 10 13 17 20 21 21 20 20 21 19 20 19 17 17 12 9
36 39 33 27 28 24 19 16 19 21 25 29 26 13 10 8 7 7 8 9 10 10 9 8 9 7 6 5 4 3 2 4 5 6 8 11 14 14 14 13 15 13 14 15 12 12 11
35 34 33 27 25 22 18 15 14 14 15 18 24 24 16 9 9 9 5 5 3 3 5 5 5 5 5 5 4 2 3 4 6 6 7 7 9 9 9 9 11 12 12 12 12 12 13
Wind_Direction
355 350 344 340 342 329 319 300 285 278 279 281 277 276 274 275 268 265 249 239 232 231 228 231 223 231 232 236 233 237 240 239 242 247 249 251 254 256 256 259 264 265 268 270 270 271 272
359 354 349 350 344 335 325 318 304 274 255 274 273 278 266 266 263 273 253 235 233 231 220 208 204 212 215 220 233 241 237 242 246 246 252 253 254 256 258 260 265 269 271 272 275 274 273
2 356 356 355 350 344 329 331 323 304 241 254 252 261 271 264 255 260 256 255 224 246 252 253 212 203 196 216 216 224 242 234 240 246 248 249 251 253 257 263 268 271 270 272 274 276 276
3 0 1 0 358 353 342 352 344 251 229 249 250 257 257 264 256 256 249 236 221 228 238 240 269 271 240 201 200 209 230 231 234 241 242 245 246 251 258 266 269 270 273 275 276 276 272
6 4 4 5 7 6 355 5 9 271 280 249 246 251 250 265 262 262 250 230 220 209 231 243 268 261 253 237 224 214 217 224 229 232 242 241 246 255 263 266 270 273 276 276 275 273 268
10 6 5 10 12 15 8 3 17 10 278 273 254 251 245 243 256 253 252 240 236 230 235 239 256 246 231 233 221 218 209 221 232 232 235 243 251 257 263 269 271 274 277 277 277 276 272
13 9 5 13 16 20 19 12 18 17 23 25 298 290 274 254 238 243 236 236 219 222 228 241 249 255 235 215 219 217 217 220 224 232 242 246 251 260 267 270 274 277 281 280 275 278 281
14 12 9 15 18 23 33 49 52 49 43 43 37 21 319 291 239 231 228 216 215 229 243 252 246 235 203 212 218 210 209 210 218 223 234 245 257 268 272 278 277 276 276 267 255 272 274
12 12 12 18 20 27 36 47 53 56 56 55 57 59 59 59 49 152 208 209 228 232 220 204 202 205 197 183 192 195 204 204 214 223 243 262 269 269 268 263 278 272 251 239 242 276 269
13 11 13 18 24 26 33 46 52 50 53 55 53 54 58 62 72 79 108 127 140 145 156 147 147 161 200 175 177 181 184 198 214 238 249 253 251 252 266 271 250 245 210 248 281 272 271
13 12 12 13 21 28 31 35 40 49 46 46 45 47 54 62 68 79 96 107 115 127 151 166 128 120 152 174 167 172 180 180 213 200 207 245 267 263 270 256 245 225 236 267 318 288 285
12 17 11 11 15 23 29 37 37 39 39 39 45 46 49 58 65 65 85 97 116 126 128 136 143 136 147 155 162 156 158 169 157 183 236 271 258 234 209 215 223 233 271 314 316 287 305
14 13 16 10 9 15 23 29 38 43 45 43 48 49 45 50 57 71 94 106 110 119 122 121 129 132 136 137 151 160 147 148 139 112 103 188 164 116 151 216 243 275 301 321 309 321 336
15 14 15 15 11 10 14 19 27 35 43 46 45 44 45 45 53 61 70 96 117 107 115 119 118 118 118 121 124 133 129 106 79 71 63 131 154 175 218 247 253 288 323 333 325 355 333
11 16 14 15 15 14 12 13 13 22 34 41 44 39 44 47 54 64 71 100 100 102 103 111 112 106 101 110 115 116 109 101 86 75 99 92 154 195 213 240 289 334 334 312 319 345 28
9 15 16 13 16 15 15 13 10 12 15 20 32 39 41 46 49 73 85 85 97 103 112 104 99 95 95 102 97 102 109 108 89 53 79 83 93 238 245 350 342 349 332 303 106 71 86
5 9 17 15 14 15 19 22 16 9 15 15 23 39 45 58 67 77 100 97 99 106 106 100 86 91 91 94 97 101 97 93 71 84 80 81 76 64 52 30 69 56 80 125 95 80 89
2 5 10 19 14 16 19 20 27 23 15 23 31 42 59 63 86 84 86 90 94 95 93 86 86 88 89 87 93 97 88 82 89 87 77 71 71 73 86 92 91 108 130 101 88 80 83
0 2 5 14 18 16 20 23 27 30 29 27 37 45 64 76 86 104 94 90 91 93 88 78 67 77 85 87 93 87 83 90 85 83 74 67 66 65 65 76 81 100 117 107 103 91 102
360 360 5 7 18 17 17 23 27 30 36 38 43 53 62 81 97 113 108 102 99 86 79 72 81 83 94 95 90 81 87 82 77 76 66 61 55 55 55 65 82 99 113 102 107 110 116
358 359 1 5 8 17 17 14 24 30 35 37 46 60 69 87 103 116 113 108 104 89 83 85 85 81 85 85 81 76 84 84 78 76 65 63 61 60 59 59 81 100 92 83 92 114 102
354 358 357 2 1 7 15 15 16 26 31 36 40 48 68 83 106 114 118 113 105 97 94 87 84 82 83 83 79 75 67 71 63 66 56 58 63 56 60 60 75 87 95 102 99 103 115
351 355 355 357 5 2 10 16 13 16 33 35 36 42 49 63 86 107 113 112 108 105 101 96 88 82 84 85 88 84 69 50 47 49 41 42 51 62 65 51 64 75 88 100 107 107 100
345 348 350 353 359 360 2 9 13 11 18 37 38 38 44 57 71 78 93 102 107 115 114 99 97 97 93 102 107 122 128 108 14 7 332 329 1 8 22 109 96 113 115 142 161 147 119
337 339 344 347 349 360 357 5 3 13 7 15 33 40 41 48 53 70 76 77 84 97 111 108 103 103 110 132 146 172 192 204 229 246 249 254 253 252 255 257 255 274 235 238 255 264 272
328 329 335 340 348 347 352 1 5 3 14 2 7 23 40 39 49 54 63 75 75 73 77 86 93 117 141 161 207 219 230 240 251 239 243 246 252 255 258 261 262 259 247 244 249 263 262
322 320 324 334 337 346 345 353 8 1 360 13 358 357 8 37 32 41 56 58 66 72 72 65 60 53 70 85 136 192 216 232 258 256 256 261 261 264 264 264 262 263 257 257 260 253 252
313 315 314 321 326 339 342 338 354 11 1 357 13 347 338 345 9 23 20 32 53 57 59 65 52 59 61 53 43 14 331 306 270 288 280 281 278 276 278 275 269 266 252 247 237 230 223
306 309 305 307 309 315 338 334 322 349 7 356 5 6 359 304 310 317 308 323 346 24 24 36 55 42 19 17 353 300 276 247 246 272 245 282 267 275 279 272 266 261 256 247 244 253 247